Year,Month,Day,Hour,Minute,Value (Times are PST for temperature in C)
2017,08,10,00,00,15.40
2017,08,10,00,01,15.40
2017,08,10,00,02,15.40
2017,08,10,00,03,15.40
2017,08,10,00,04,15.40
2017,08,10,00,05,15.40
2017,08,10,00,06,15.40
2017,08,10,00,07,15.40
2017,08,10,00,08,15.40
2017,08,10,00,09,15.40
2017,08,10,00,10,15.40
2017,08,10,00,11,15.40
2017,08,10,00,12,15.40
2017,08,10,00,13,15.40
2017,08,10,00,14,15.30
2017,08,10,00,15,15.30
2017,08,10,00,16,15.30
2017,08,10,00,17,15.30
2017,08,10,00,18,15.30
2017,08,10,00,19,15.30
2017,08,10,00,20,15.30
2017,08,10,00,21,15.30
2017,08,10,00,22,15.30
2017,08,10,00,23,15.30
2017,08,10,00,24,15.30
2017,08,10,00,25,15.30
2017,08,10,00,26,15.30
2017,08,10,00,27,15.30
2017,08,10,00,28,15.30
2017,08,10,00,29,15.30
2017,08,10,00,30,15.30
2017,08,10,00,31,15.30
2017,08,10,00,32,15.30
2017,08,10,00,33,15.30
2017,08,10,00,34,15.20
2017,08,10,00,35,15.20
2017,08,10,00,36,15.20
2017,08,10,00,37,15.20
2017,08,10,00,38,15.20
2017,08,10,00,39,15.20
2017,08,10,00,40,15.20
2017,08,10,00,41,15.20
2017,08,10,00,42,15.20
2017,08,10,00,43,15.20
2017,08,10,00,44,15.20
2017,08,10,00,45,15.20
2017,08,10,00,46,15.20
2017,08,10,00,47,15.20
2017,08,10,00,48,15.20
2017,08,10,00,49,15.20
2017,08,10,00,50,15.20
2017,08,10,00,51,15.20
2017,08,10,00,52,15.20
2017,08,10,00,53,15.20
2017,08,10,00,54,15.20
2017,08,10,00,55,15.30
2017,08,10,00,56,15.30
2017,08,10,00,57,15.30
2017,08,10,00,58,15.30
2017,08,10,00,59,15.30
2017,08,10,01,00,15.30
2017,08,10,01,01,15.30
2017,08,10,01,02,15.30
2017,08,10,01,03,15.30
2017,08,10,01,04,15.30
2017,08,10,01,05,15.30
2017,08,10,01,06,15.30
2017,08,10,01,07,15.30
2017,08,10,01,08,15.30
2017,08,10,01,09,15.20
2017,08,10,01,10,15.20
2017,08,10,01,11,15.20
2017,08,10,01,12,15.20
2017,08,10,01,13,15.30
2017,08,10,01,14,15.30
2017,08,10,01,15,15.30
2017,08,10,01,16,15.30
2017,08,10,01,17,15.30
2017,08,10,01,18,15.30
2017,08,10,01,19,15.30
2017,08,10,01,20,15.30
2017,08,10,01,21,15.30
2017,08,10,01,22,15.30
2017,08,10,01,23,15.30
2017,08,10,01,24,15.20
2017,08,10,01,25,15.20
2017,08,10,01,26,15.20
2017,08,10,01,27,15.10
2017,08,10,01,28,15.10
2017,08,10,01,29,15.10
2017,08,10,01,30,15.00
2017,08,10,01,31,14.90
2017,08,10,01,32,14.90
2017,08,10,01,33,14.90
2017,08,10,01,34,14.80
2017,08,10,01,35,14.80
2017,08,10,01,36,14.70
2017,08,10,01,37,14.70
2017,08,10,01,38,14.70
2017,08,10,01,39,14.60
2017,08,10,01,40,14.60
2017,08,10,01,41,14.60
2017,08,10,01,42,14.50
2017,08,10,01,43,14.50
2017,08,10,01,44,14.40
2017,08,10,01,45,14.40
2017,08,10,01,46,14.40
2017,08,10,01,47,14.40
2017,08,10,01,48,14.40
2017,08,10,01,49,14.30
2017,08,10,01,50,14.30
2017,08,10,01,51,14.30
2017,08,10,01,52,14.30
2017,08,10,01,53,14.30
2017,08,10,01,54,14.30
2017,08,10,01,55,14.30
2017,08,10,01,56,14.30
2017,08,10,01,57,14.30
2017,08,10,01,58,14.30
2017,08,10,01,59,14.20
2017,08,10,02,00,14.20
2017,08,10,02,01,14.20
2017,08,10,02,02,14.20
2017,08,10,02,03,14.20
2017,08,10,02,04,14.20
2017,08,10,02,05,14.10
2017,08,10,02,06,14.10
2017,08,10,02,07,14.10
2017,08,10,02,08,14.10
2017,08,10,02,09,14.10
2017,08,10,02,10,14.10
2017,08,10,02,11,14.00
2017,08,10,02,12,14.00
2017,08,10,02,13,14.00
2017,08,10,02,14,13.90
2017,08,10,02,15,13.90
2017,08,10,02,16,13.90
2017,08,10,02,17,13.90
2017,08,10,02,18,13.90
2017,08,10,02,19,13.90
2017,08,10,02,20,13.80
2017,08,10,02,21,13.80
2017,08,10,02,22,13.80
2017,08,10,02,23,13.80
2017,08,10,02,24,13.80
2017,08,10,02,25,13.80
2017,08,10,02,26,13.80
2017,08,10,02,27,13.80
2017,08,10,02,28,13.80
2017,08,10,02,29,13.70
2017,08,10,02,30,13.70
2017,08,10,02,31,13.70
2017,08,10,02,32,13.80
2017,08,10,02,33,13.80
2017,08,10,02,34,13.80
2017,08,10,02,35,13.80
2017,08,10,02,36,13.80
2017,08,10,02,37,13.80
2017,08,10,02,38,13.80
2017,08,10,02,39,13.80
2017,08,10,02,40,13.80
2017,08,10,02,41,13.70
2017,08,10,02,42,13.70
2017,08,10,02,43,13.70
2017,08,10,02,44,13.70
2017,08,10,02,45,13.70
2017,08,10,02,46,13.70
2017,08,10,02,47,13.70
2017,08,10,02,48,13.70
2017,08,10,02,49,13.70
2017,08,10,02,50,13.70
2017,08,10,02,51,13.70
2017,08,10,02,52,13.70
2017,08,10,02,53,13.70
2017,08,10,02,54,13.70
2017,08,10,02,55,13.70
2017,08,10,02,56,13.70
2017,08,10,02,57,13.70
2017,08,10,02,58,13.60
2017,08,10,02,59,13.70
2017,08,10,03,00,13.60
2017,08,10,03,01,13.60
2017,08,10,03,02,13.60
2017,08,10,03,03,13.70
2017,08,10,03,04,13.60
2017,08,10,03,05,13.70
2017,08,10,03,06,13.70
2017,08,10,03,07,13.70
2017,08,10,03,08,13.70
2017,08,10,03,09,13.70
2017,08,10,03,10,13.70
2017,08,10,03,11,13.70
2017,08,10,03,12,13.70
2017,08,10,03,13,13.70
2017,08,10,03,14,13.70
2017,08,10,03,15,13.70
2017,08,10,03,16,13.70
2017,08,10,03,17,13.70
2017,08,10,03,18,13.70
2017,08,10,03,19,13.70
2017,08,10,03,20,13.70
2017,08,10,03,21,13.70
2017,08,10,03,22,13.70
2017,08,10,03,23,13.70
2017,08,10,03,24,13.70
2017,08,10,03,25,13.70
2017,08,10,03,26,13.70
2017,08,10,03,27,13.70
2017,08,10,03,28,13.70
2017,08,10,03,29,13.70
2017,08,10,03,30,13.70
2017,08,10,03,31,13.70
2017,08,10,03,32,13.70
2017,08,10,03,33,13.80
2017,08,10,03,34,13.80
2017,08,10,03,35,13.80
2017,08,10,03,36,13.80
2017,08,10,03,37,13.80
2017,08,10,03,38,13.80
2017,08,10,03,39,13.80
2017,08,10,03,40,13.80
2017,08,10,03,41,13.80
2017,08,10,03,42,13.80
2017,08,10,03,43,13.70
2017,08,10,03,44,13.70
2017,08,10,03,45,13.70
2017,08,10,03,46,13.70
2017,08,10,03,47,13.70
2017,08,10,03,48,13.70
2017,08,10,03,49,13.70
2017,08,10,03,50,13.60
2017,08,10,03,51,13.60
2017,08,10,03,52,13.60
2017,08,10,03,53,13.60
2017,08,10,03,54,13.60
2017,08,10,03,55,13.60
2017,08,10,03,56,13.60
2017,08,10,03,57,13.60
2017,08,10,03,58,13.60
2017,08,10,03,59,13.60
2017,08,10,04,00,13.50
2017,08,10,04,01,13.60
2017,08,10,04,02,13.50
2017,08,10,04,03,13.50
2017,08,10,04,04,13.50
2017,08,10,04,05,13.60
2017,08,10,04,06,13.60
2017,08,10,04,07,13.60
2017,08,10,04,08,13.60
2017,08,10,04,09,13.60
2017,08,10,04,10,13.60
2017,08,10,04,11,13.60
2017,08,10,04,12,13.60
2017,08,10,04,13,13.60
2017,08,10,04,14,13.60
2017,08,10,04,15,13.60
2017,08,10,04,16,13.60
2017,08,10,04,17,13.70
2017,08,10,04,18,13.70
2017,08,10,04,19,13.70
2017,08,10,04,20,13.70
2017,08,10,04,21,13.70
2017,08,10,04,22,13.70
2017,08,10,04,23,13.70
2017,08,10,04,24,13.80
2017,08,10,04,25,13.80
2017,08,10,04,26,13.80
2017,08,10,04,27,13.90
2017,08,10,04,28,13.90
2017,08,10,04,29,13.90
2017,08,10,04,30,13.90
2017,08,10,04,31,13.90
2017,08,10,04,32,13.90
2017,08,10,04,33,13.90
2017,08,10,04,34,13.90
2017,08,10,04,35,13.90
2017,08,10,04,36,13.90
2017,08,10,04,37,13.90
2017,08,10,04,38,13.90
2017,08,10,04,39,13.90
2017,08,10,04,40,13.90
2017,08,10,04,41,13.90
2017,08,10,04,42,13.90
2017,08,10,04,43,13.80
2017,08,10,04,44,13.80
2017,08,10,04,45,13.80
2017,08,10,04,46,13.80
2017,08,10,04,47,13.80
2017,08,10,04,48,13.80
2017,08,10,04,49,13.80
2017,08,10,04,50,13.80
2017,08,10,04,51,13.80
2017,08,10,04,52,13.80
2017,08,10,04,53,13.70
2017,08,10,04,54,13.70
2017,08,10,04,55,13.70
2017,08,10,04,56,13.70
2017,08,10,04,57,13.70
2017,08,10,04,58,13.70
2017,08,10,04,59,13.60
2017,08,10,05,00,13.60
2017,08,10,05,01,13.60
2017,08,10,05,02,13.60
2017,08,10,05,03,13.50
2017,08,10,05,04,13.50
2017,08,10,05,05,13.40
2017,08,10,05,06,13.40
2017,08,10,05,07,13.40
2017,08,10,05,08,13.30
2017,08,10,05,09,13.30
2017,08,10,05,10,13.30
2017,08,10,05,11,13.30
2017,08,10,05,12,13.20
2017,08,10,05,13,13.20
2017,08,10,05,14,13.20
2017,08,10,05,15,13.20
2017,08,10,05,16,13.20
2017,08,10,05,17,13.10
2017,08,10,05,18,13.10
2017,08,10,05,19,13.10
2017,08,10,05,20,13.10
2017,08,10,05,21,13.10
2017,08,10,05,22,13.10
2017,08,10,05,23,13.10
2017,08,10,05,24,13.10
2017,08,10,05,25,13.00
2017,08,10,05,26,13.00
2017,08,10,05,27,13.00
2017,08,10,05,28,12.90
2017,08,10,05,29,12.90
2017,08,10,05,30,12.90
2017,08,10,05,31,12.90
2017,08,10,05,32,12.90
2017,08,10,05,33,12.90
2017,08,10,05,34,12.90
2017,08,10,05,35,12.90
2017,08,10,05,36,12.90
2017,08,10,05,37,12.90
2017,08,10,05,38,12.90
2017,08,10,05,39,12.90
2017,08,10,05,40,12.90
2017,08,10,05,41,12.90
2017,08,10,05,42,12.90
2017,08,10,05,43,12.90
2017,08,10,05,44,12.80
2017,08,10,05,45,12.80
2017,08,10,05,46,12.80
2017,08,10,05,47,12.80
2017,08,10,05,48,12.80
2017,08,10,05,49,12.80
2017,08,10,05,50,12.80
2017,08,10,05,51,12.80
2017,08,10,05,52,12.80
2017,08,10,05,53,12.80
2017,08,10,05,54,12.80
2017,08,10,05,55,12.80
2017,08,10,05,56,12.80
2017,08,10,05,57,12.80
2017,08,10,05,58,12.70
2017,08,10,05,59,12.70
2017,08,10,06,00,12.70
2017,08,10,06,01,12.70
2017,08,10,06,02,12.70
2017,08,10,06,03,12.70
2017,08,10,06,04,12.70
2017,08,10,06,05,12.70
2017,08,10,06,06,12.70
2017,08,10,06,07,12.70
2017,08,10,06,08,12.70
2017,08,10,06,09,12.70
2017,08,10,06,10,12.70
2017,08,10,06,11,12.70
2017,08,10,06,12,12.70
2017,08,10,06,13,12.60
2017,08,10,06,14,12.60
2017,08,10,06,15,12.60
2017,08,10,06,16,12.60
2017,08,10,06,17,12.60
2017,08,10,06,18,12.60
2017,08,10,06,19,12.60
2017,08,10,06,20,12.60
2017,08,10,06,21,12.60
2017,08,10,06,22,12.60
2017,08,10,06,23,12.60
2017,08,10,06,24,12.60
2017,08,10,06,25,12.60
2017,08,10,06,26,12.60
2017,08,10,06,27,12.60
2017,08,10,06,28,12.60
2017,08,10,06,29,12.60
2017,08,10,06,30,12.60
2017,08,10,06,31,12.60
2017,08,10,06,32,12.70
2017,08,10,06,33,12.70
2017,08,10,06,34,12.70
2017,08,10,06,35,12.70
2017,08,10,06,36,12.70
2017,08,10,06,37,12.70
2017,08,10,06,38,12.70
2017,08,10,06,39,12.70
2017,08,10,06,40,12.70
2017,08,10,06,41,12.70
2017,08,10,06,42,12.70
2017,08,10,06,43,12.70
2017,08,10,06,44,12.70
2017,08,10,06,45,12.70
2017,08,10,06,46,12.70
2017,08,10,06,47,12.70
2017,08,10,06,48,12.70
2017,08,10,06,49,12.70
2017,08,10,06,50,12.70
2017,08,10,06,51,12.70
2017,08,10,06,52,12.80
2017,08,10,06,53,12.80
2017,08,10,06,54,12.80
2017,08,10,06,55,12.80
2017,08,10,06,56,12.80
2017,08,10,06,57,12.80
2017,08,10,06,58,12.80
2017,08,10,06,59,12.80
2017,08,10,07,00,12.80
2017,08,10,07,01,12.80
2017,08,10,07,02,12.80
2017,08,10,07,03,12.80
2017,08,10,07,04,12.90
2017,08,10,07,05,12.90
2017,08,10,07,06,12.90
2017,08,10,07,07,12.90
2017,08,10,07,08,12.90
2017,08,10,07,09,12.90
2017,08,10,07,10,13.00
2017,08,10,07,11,13.00
2017,08,10,07,12,13.00
2017,08,10,07,13,13.10
2017,08,10,07,14,13.10
2017,08,10,07,15,13.10
2017,08,10,07,16,13.20
2017,08,10,07,17,13.20
2017,08,10,07,18,13.20
2017,08,10,07,19,13.30
2017,08,10,07,20,13.30
2017,08,10,07,21,13.40
2017,08,10,07,22,13.40
2017,08,10,07,23,13.50
2017,08,10,07,24,13.50
2017,08,10,07,25,13.60
2017,08,10,07,26,13.60
2017,08,10,07,27,13.60
2017,08,10,07,28,13.70
2017,08,10,07,29,13.80
2017,08,10,07,30,13.80
2017,08,10,07,31,13.90
2017,08,10,07,32,13.90
2017,08,10,07,33,14.00
2017,08,10,07,34,14.00
2017,08,10,07,35,14.10
2017,08,10,07,36,14.10
2017,08,10,07,37,14.10
2017,08,10,07,38,14.20
2017,08,10,07,39,14.20
2017,08,10,07,40,14.20
2017,08,10,07,41,14.20
2017,08,10,07,42,14.20
2017,08,10,07,43,14.30
2017,08,10,07,44,14.30
2017,08,10,07,45,14.30
2017,08,10,07,46,14.30
2017,08,10,07,47,14.40
2017,08,10,07,48,14.40
2017,08,10,07,49,14.40
2017,08,10,07,50,14.50
2017,08,10,07,51,14.50
2017,08,10,07,52,14.60
2017,08,10,07,53,14.70
2017,08,10,07,54,14.70
2017,08,10,07,55,14.80
2017,08,10,07,56,14.80
2017,08,10,07,57,14.80
2017,08,10,07,58,14.80
2017,08,10,07,59,14.90
2017,08,10,08,00,14.90
2017,08,10,08,01,14.90
2017,08,10,08,02,15.00
2017,08,10,08,03,15.10
2017,08,10,08,04,15.20
2017,08,10,08,05,15.20
2017,08,10,08,06,15.30
2017,08,10,08,07,15.30
2017,08,10,08,08,15.40
2017,08,10,08,09,15.50
2017,08,10,08,10,15.60
2017,08,10,08,11,15.70
2017,08,10,08,12,15.80
2017,08,10,08,13,15.90
2017,08,10,08,14,16.00
2017,08,10,08,15,16.10
2017,08,10,08,16,16.10
2017,08,10,08,17,16.20
2017,08,10,08,18,16.20
2017,08,10,08,19,16.30
2017,08,10,08,20,16.30
2017,08,10,08,21,16.30
2017,08,10,08,22,16.30
2017,08,10,08,23,16.40
2017,08,10,08,24,16.40
2017,08,10,08,25,16.40
2017,08,10,08,26,16.40
2017,08,10,08,27,16.50
2017,08,10,08,28,16.50
2017,08,10,08,29,16.60
2017,08,10,08,30,16.60
2017,08,10,08,31,16.60
2017,08,10,08,32,16.70
2017,08,10,08,33,16.70
2017,08,10,08,34,16.80
2017,08,10,08,35,16.80
2017,08,10,08,36,16.90
2017,08,10,08,37,17.00
2017,08,10,08,38,17.00
2017,08,10,08,39,17.10
2017,08,10,08,40,17.10
2017,08,10,08,41,17.20
2017,08,10,08,42,17.20
2017,08,10,08,43,17.20
2017,08,10,08,44,17.20
2017,08,10,08,45,17.20
2017,08,10,08,46,17.30
2017,08,10,08,47,17.30
2017,08,10,08,48,17.30
2017,08,10,08,49,17.30
2017,08,10,08,50,17.30
2017,08,10,08,51,17.30
2017,08,10,08,52,17.40
2017,08,10,08,53,17.40
2017,08,10,08,54,17.30
2017,08,10,08,55,17.30
2017,08,10,08,56,17.20
2017,08,10,08,57,17.20
2017,08,10,08,58,17.20
2017,08,10,08,59,17.20
2017,08,10,09,00,17.20
2017,08,10,09,01,17.20
2017,08,10,09,02,17.20
2017,08,10,09,03,17.20
2017,08,10,09,04,17.20
2017,08,10,09,05,17.20
2017,08,10,09,06,17.20
2017,08,10,09,07,17.20
2017,08,10,09,08,17.20
2017,08,10,09,09,17.20
2017,08,10,09,10,17.20
2017,08,10,09,11,17.30
2017,08,10,09,12,17.30
2017,08,10,09,13,17.40
2017,08,10,09,14,17.40
2017,08,10,09,15,17.40
2017,08,10,09,16,17.40
2017,08,10,09,17,17.50
2017,08,10,09,18,17.50
2017,08,10,09,19,17.50
2017,08,10,09,20,17.50
2017,08,10,09,21,17.50
2017,08,10,09,22,17.50
2017,08,10,09,23,17.60
2017,08,10,09,24,17.60
2017,08,10,09,25,17.60
2017,08,10,09,26,17.70
2017,08,10,09,27,17.70
2017,08,10,09,28,17.80
2017,08,10,09,29,17.80
2017,08,10,09,30,17.90
2017,08,10,09,31,17.90
2017,08,10,09,32,17.90
2017,08,10,09,33,18.00
2017,08,10,09,34,18.10
2017,08,10,09,35,18.10
2017,08,10,09,36,18.20
2017,08,10,09,37,18.30
2017,08,10,09,38,18.40
2017,08,10,09,39,18.40
2017,08,10,09,40,18.50
2017,08,10,09,41,18.50
2017,08,10,09,42,18.60
2017,08,10,09,43,18.60
2017,08,10,09,44,18.70
2017,08,10,09,45,18.70
2017,08,10,09,46,18.80
2017,08,10,09,47,18.80
2017,08,10,09,48,18.90
2017,08,10,09,49,18.90
2017,08,10,09,50,19.00
2017,08,10,09,51,19.00
2017,08,10,09,52,19.10
2017,08,10,09,53,19.10
2017,08,10,09,54,19.10
2017,08,10,09,55,19.10
2017,08,10,09,56,19.20
2017,08,10,09,57,19.30
2017,08,10,09,58,19.40
2017,08,10,09,59,19.50
2017,08,10,10,00,19.60
2017,08,10,10,01,19.70
2017,08,10,10,02,19.80
2017,08,10,10,03,19.80
2017,08,10,10,04,19.90
2017,08,10,10,05,20.00
2017,08,10,10,06,20.00
2017,08,10,10,07,20.10
2017,08,10,10,08,20.20
2017,08,10,10,09,20.30
2017,08,10,10,10,20.30
2017,08,10,10,11,20.30
2017,08,10,10,12,20.40
2017,08,10,10,13,20.40
2017,08,10,10,14,20.40
2017,08,10,10,15,20.40
2017,08,10,10,16,20.50
2017,08,10,10,17,20.50
2017,08,10,10,18,20.50
2017,08,10,10,19,20.60
2017,08,10,10,20,20.60
2017,08,10,10,21,20.70
2017,08,10,10,22,20.70
2017,08,10,10,23,20.80
2017,08,10,10,24,20.80
2017,08,10,10,25,20.80
2017,08,10,10,26,20.80
2017,08,10,10,27,20.80
2017,08,10,10,28,20.80
2017,08,10,10,29,20.80
2017,08,10,10,30,20.80
2017,08,10,10,31,20.80
2017,08,10,10,32,20.90
2017,08,10,10,33,20.90
2017,08,10,10,34,21.00
2017,08,10,10,35,21.00
2017,08,10,10,36,21.00
2017,08,10,10,37,21.00
2017,08,10,10,38,21.00
2017,08,10,10,39,21.00
2017,08,10,10,40,21.00
2017,08,10,10,41,21.10
2017,08,10,10,42,21.20
2017,08,10,10,43,21.30
2017,08,10,10,44,21.30
2017,08,10,10,45,21.30
2017,08,10,10,46,21.20
2017,08,10,10,47,21.20
2017,08,10,10,48,21.20
2017,08,10,10,49,21.10
2017,08,10,10,50,21.00
2017,08,10,10,51,20.90
2017,08,10,10,52,20.80
2017,08,10,10,53,20.70
2017,08,10,10,54,20.60
2017,08,10,10,55,20.60
2017,08,10,10,56,20.60
2017,08,10,10,57,20.50
2017,08,10,10,58,20.50
2017,08,10,10,59,20.50
2017,08,10,11,00,20.50
2017,08,10,11,01,20.40
2017,08,10,11,02,20.40
2017,08,10,11,03,20.40
2017,08,10,11,04,20.40
2017,08,10,11,05,20.40
2017,08,10,11,06,20.40
2017,08,10,11,07,20.30
2017,08,10,11,08,20.40
2017,08,10,11,09,20.30
2017,08,10,11,10,20.30
2017,08,10,11,11,20.30
2017,08,10,11,12,20.40
2017,08,10,11,13,20.40
2017,08,10,11,14,20.40
2017,08,10,11,15,20.40
2017,08,10,11,16,20.50
2017,08,10,11,17,20.50
2017,08,10,11,18,20.50
2017,08,10,11,19,20.60
2017,08,10,11,20,20.60
2017,08,10,11,21,20.60
2017,08,10,11,22,20.60
2017,08,10,11,23,20.60
2017,08,10,11,24,20.70
2017,08,10,11,25,20.70
2017,08,10,11,26,20.80
2017,08,10,11,27,20.80
2017,08,10,11,28,20.80
2017,08,10,11,29,20.80
2017,08,10,11,30,20.80
2017,08,10,11,31,20.90
2017,08,10,11,32,20.90
2017,08,10,11,33,20.90
2017,08,10,11,34,20.90
2017,08,10,11,35,20.90
2017,08,10,11,36,20.90
2017,08,10,11,37,20.90
2017,08,10,11,38,20.90
2017,08,10,11,39,20.80
2017,08,10,11,40,20.80
2017,08,10,11,41,20.70
2017,08,10,11,42,20.70
2017,08,10,11,43,20.50
2017,08,10,11,44,20.50
2017,08,10,11,45,20.40
2017,08,10,11,46,20.40
2017,08,10,11,47,20.30
2017,08,10,11,48,20.30
2017,08,10,11,49,20.30
2017,08,10,11,50,20.30
2017,08,10,11,51,20.30
2017,08,10,11,52,20.30
2017,08,10,11,53,20.30
2017,08,10,11,54,20.30
2017,08,10,11,55,20.30
2017,08,10,11,56,20.30
2017,08,10,11,57,20.30
2017,08,10,11,58,20.30
2017,08,10,11,59,20.30
2017,08,10,12,00,20.30
2017,08,10,12,01,20.30
2017,08,10,12,02,20.30
2017,08,10,12,03,20.30
2017,08,10,12,04,20.40
2017,08,10,12,05,20.40
2017,08,10,12,06,20.40
2017,08,10,12,07,20.50
2017,08,10,12,08,20.50
2017,08,10,12,09,20.50
2017,08,10,12,10,20.60
2017,08,10,12,11,20.60
2017,08,10,12,12,20.60
2017,08,10,12,13,20.60
2017,08,10,12,14,20.60
2017,08,10,12,15,20.70
2017,08,10,12,16,20.80
2017,08,10,12,17,20.80
2017,08,10,12,18,20.70
2017,08,10,12,19,20.60
2017,08,10,12,20,20.60
2017,08,10,12,21,20.60
2017,08,10,12,22,20.50
2017,08,10,12,23,20.50
2017,08,10,12,24,20.40
2017,08,10,12,25,20.50
2017,08,10,12,26,20.50
2017,08,10,12,27,20.50
2017,08,10,12,28,20.50
2017,08,10,12,29,20.60
2017,08,10,12,30,20.60
2017,08,10,12,31,20.80
2017,08,10,12,32,20.80
2017,08,10,12,33,20.80
2017,08,10,12,34,20.80
2017,08,10,12,35,20.90
2017,08,10,12,36,20.90
2017,08,10,12,37,21.00
2017,08,10,12,38,21.10
2017,08,10,12,39,21.20
2017,08,10,12,40,21.20
2017,08,10,12,41,21.30
2017,08,10,12,42,21.30
2017,08,10,12,43,21.30
2017,08,10,12,44,21.30
2017,08,10,12,45,21.30
2017,08,10,12,46,21.30
2017,08,10,12,47,21.30
2017,08,10,12,48,21.30
2017,08,10,12,49,21.40
2017,08,10,12,50,21.50
2017,08,10,12,51,21.70
2017,08,10,12,52,21.80
2017,08,10,12,53,21.80
2017,08,10,12,54,21.70
2017,08,10,12,55,21.70
2017,08,10,12,56,21.70
2017,08,10,12,57,21.60
2017,08,10,12,58,21.60
2017,08,10,12,59,21.70
2017,08,10,13,00,21.70
2017,08,10,13,01,21.70
2017,08,10,13,02,21.80
2017,08,10,13,03,21.80
2017,08,10,13,04,21.80
2017,08,10,13,05,21.70
2017,08,10,13,06,21.60
2017,08,10,13,07,21.50
2017,08,10,13,08,21.40
2017,08,10,13,09,21.40
2017,08,10,13,10,21.40
2017,08,10,13,11,21.40
2017,08,10,13,12,21.40
2017,08,10,13,13,21.40
2017,08,10,13,14,21.40
2017,08,10,13,15,21.40
2017,08,10,13,16,21.50
2017,08,10,13,17,21.50
2017,08,10,13,18,21.50
2017,08,10,13,19,21.60
2017,08,10,13,20,21.60
2017,08,10,13,21,21.70
2017,08,10,13,22,21.70
2017,08,10,13,23,21.80
2017,08,10,13,24,21.80
2017,08,10,13,25,21.80
2017,08,10,13,26,21.80
2017,08,10,13,27,21.80
2017,08,10,13,28,21.90
2017,08,10,13,29,21.90
2017,08,10,13,30,21.90
2017,08,10,13,31,22.00
2017,08,10,13,32,22.10
2017,08,10,13,33,22.10
2017,08,10,13,34,22.10
2017,08,10,13,35,22.20
2017,08,10,13,36,22.20
2017,08,10,13,37,22.30
2017,08,10,13,38,22.30
2017,08,10,13,39,22.40
2017,08,10,13,40,22.50
2017,08,10,13,41,22.60
2017,08,10,13,42,22.60
2017,08,10,13,43,22.80
2017,08,10,13,44,22.90
2017,08,10,13,45,22.90
2017,08,10,13,46,22.90
2017,08,10,13,47,23.00
2017,08,10,13,48,22.90
2017,08,10,13,49,22.90
2017,08,10,13,50,23.00
2017,08,10,13,51,23.10
2017,08,10,13,52,23.10
2017,08,10,13,53,23.20
2017,08,10,13,54,23.30
2017,08,10,13,55,23.30
2017,08,10,13,56,23.30
2017,08,10,13,57,23.30
2017,08,10,13,58,23.40
2017,08,10,13,59,23.50
2017,08,10,14,00,23.50
2017,08,10,14,01,23.60
2017,08,10,14,02,23.60
2017,08,10,14,03,23.70
2017,08,10,14,04,23.70
2017,08,10,14,05,23.70
2017,08,10,14,06,23.70
2017,08,10,14,07,23.70
2017,08,10,14,08,23.60
2017,08,10,14,09,23.60
2017,08,10,14,10,23.70
2017,08,10,14,11,23.70
2017,08,10,14,12,23.70
2017,08,10,14,13,23.70
2017,08,10,14,14,23.70
2017,08,10,14,15,23.70
2017,08,10,14,16,23.80
2017,08,10,14,17,23.80
2017,08,10,14,18,23.80
2017,08,10,14,19,23.70
2017,08,10,14,20,23.70
2017,08,10,14,21,23.80
2017,08,10,14,22,23.80
2017,08,10,14,23,23.80
2017,08,10,14,24,23.80
2017,08,10,14,25,23.80
2017,08,10,14,26,23.80
2017,08,10,14,27,23.80
2017,08,10,14,28,23.80
2017,08,10,14,29,23.80
2017,08,10,14,30,23.90
2017,08,10,14,31,23.90
2017,08,10,14,32,24.00
2017,08,10,14,33,24.20
2017,08,10,14,34,24.20
2017,08,10,14,35,24.30
2017,08,10,14,36,24.30
2017,08,10,14,37,24.20
2017,08,10,14,38,24.30
2017,08,10,14,39,24.30
2017,08,10,14,40,24.30
2017,08,10,14,41,24.40
2017,08,10,14,42,24.40
2017,08,10,14,43,24.40
2017,08,10,14,44,24.30
2017,08,10,14,45,24.40
2017,08,10,14,46,24.40
2017,08,10,14,47,24.40
2017,08,10,14,48,24.30
2017,08,10,14,49,24.30
2017,08,10,14,50,24.30
2017,08,10,14,51,24.30
2017,08,10,14,52,24.30
2017,08,10,14,53,24.20
2017,08,10,14,54,24.20
2017,08,10,14,55,24.20
2017,08,10,14,56,24.10
2017,08,10,14,57,24.10
2017,08,10,14,58,24.00
2017,08,10,14,59,23.90
2017,08,10,15,00,23.90
2017,08,10,15,01,23.90
2017,08,10,15,02,23.90
2017,08,10,15,03,23.80
2017,08,10,15,04,23.80
2017,08,10,15,05,23.80
2017,08,10,15,06,23.80
2017,08,10,15,07,23.80
2017,08,10,15,08,23.80
2017,08,10,15,09,23.70
2017,08,10,15,10,23.70
2017,08,10,15,11,23.70
2017,08,10,15,12,23.70
2017,08,10,15,13,23.60
2017,08,10,15,14,23.50
2017,08,10,15,15,23.50
2017,08,10,15,16,23.40
2017,08,10,15,17,23.30
2017,08,10,15,18,23.30
2017,08,10,15,19,23.30
2017,08,10,15,20,23.20
2017,08,10,15,21,23.20
2017,08,10,15,22,23.20
2017,08,10,15,23,23.30
2017,08,10,15,24,23.30
2017,08,10,15,25,23.40
2017,08,10,15,26,23.50
2017,08,10,15,27,23.50
2017,08,10,15,28,23.60
2017,08,10,15,29,23.70
2017,08,10,15,30,23.80
2017,08,10,15,31,23.80
2017,08,10,15,32,23.90
2017,08,10,15,33,24.00
2017,08,10,15,34,24.10
2017,08,10,15,35,24.20
2017,08,10,15,36,24.20
2017,08,10,15,37,24.20
2017,08,10,15,38,24.30
2017,08,10,15,39,24.30
2017,08,10,15,40,24.30
2017,08,10,15,41,24.30
2017,08,10,15,42,24.40
2017,08,10,15,43,24.40
2017,08,10,15,44,24.40
2017,08,10,15,45,24.40
2017,08,10,15,46,24.40
2017,08,10,15,47,24.40
2017,08,10,15,48,24.40
2017,08,10,15,49,24.40
2017,08,10,15,50,24.40
2017,08,10,15,51,24.40
2017,08,10,15,52,24.40
2017,08,10,15,53,24.30
2017,08,10,15,54,24.40
2017,08,10,15,55,24.40
2017,08,10,15,56,24.40
2017,08,10,15,57,24.50
2017,08,10,15,58,24.50
2017,08,10,15,59,24.50
2017,08,10,16,00,24.50
2017,08,10,16,01,24.50
2017,08,10,16,02,24.40
2017,08,10,16,03,24.40
2017,08,10,16,04,24.40
2017,08,10,16,05,24.40
2017,08,10,16,06,24.40
2017,08,10,16,07,24.40
2017,08,10,16,08,24.40
2017,08,10,16,09,24.30
2017,08,10,16,10,24.30
2017,08,10,16,11,24.20
2017,08,10,16,12,24.20
2017,08,10,16,13,24.10
2017,08,10,16,14,24.10
2017,08,10,16,15,24.10
2017,08,10,16,16,24.10
2017,08,10,16,17,24.10
2017,08,10,16,18,24.20
2017,08,10,16,19,24.20
2017,08,10,16,20,24.30
2017,08,10,16,21,24.30
2017,08,10,16,22,24.30
2017,08,10,16,23,24.20
2017,08,10,16,24,24.20
2017,08,10,16,25,24.30
2017,08,10,16,26,24.30
2017,08,10,16,27,24.40
2017,08,10,16,28,24.40
2017,08,10,16,29,24.40
2017,08,10,16,30,24.40
2017,08,10,16,31,24.40
2017,08,10,16,32,24.40
2017,08,10,16,33,24.40
2017,08,10,16,34,24.40
2017,08,10,16,35,24.40
2017,08,10,16,36,24.40
2017,08,10,16,37,24.40
2017,08,10,16,38,24.50
2017,08,10,16,39,24.60
2017,08,10,16,40,24.60
2017,08,10,16,41,24.70
2017,08,10,16,42,24.70
2017,08,10,16,43,24.80
2017,08,10,16,44,24.80
2017,08,10,16,45,24.80
2017,08,10,16,46,24.80
2017,08,10,16,47,24.80
2017,08,10,16,48,24.80
2017,08,10,16,49,24.80
2017,08,10,16,50,24.80
2017,08,10,16,51,24.80
2017,08,10,16,52,24.80
2017,08,10,16,53,24.80
2017,08,10,16,54,24.80
2017,08,10,16,55,24.70
2017,08,10,16,56,24.60
2017,08,10,16,57,24.50
2017,08,10,16,58,24.50
2017,08,10,16,59,24.40
2017,08,10,17,00,24.40
2017,08,10,17,01,24.40
2017,08,10,17,02,24.40
2017,08,10,17,03,24.40
2017,08,10,17,04,24.50
2017,08,10,17,05,24.50
2017,08,10,17,06,24.60
2017,08,10,17,07,24.60
2017,08,10,17,08,24.60
2017,08,10,17,09,24.50
2017,08,10,17,10,24.50
2017,08,10,17,11,24.50
2017,08,10,17,12,24.50
2017,08,10,17,13,24.40
2017,08,10,17,14,24.20
2017,08,10,17,15,24.10
2017,08,10,17,16,24.00
2017,08,10,17,17,23.90
2017,08,10,17,18,23.90
2017,08,10,17,19,23.90